Regional Weather Roundup
Issued by NWS State College, PA

Home | Current Version | Previous Version | Graphics & Text | Print | Product List | Glossary Off
Versions: 1 2 3 4 5 6 7 8 9 10 11 12 13 14 15 16 17 18 19 20 21 22 23 24 25 26 27 28 29 30 31 32 33 34 35 36 37 38 39 40 41 42 43 44 45 46 47 48 49 50

000
ASUS41 KCTP 202010
RWRCTP

REGIONAL WEATHER ROUNDUP
NATIONAL WEATHER SERVICE STATE COLLEGE PA
400 PM EDT WED AUG 20 2014

Note: "fair" indicates few or no clouds below 12,000 feet with no
significant weather and/or obstructions to visibility.

* = STATION THAT DOES NOT REPORT PRECIPITATION /E.G. RAIN...SNOW...ETC/
    THUNDER OR FOG.

PAZ002>004-007>009-013>016-020>023-029>032-202100-
WESTERN PENNSYLVANIA

CITY           SKY/WX    TMP DP  RH WIND       PRES   REMARKS
ERIE           PTSUNNY   78  66  66 S5        29.89R
MEADVILLE      PTSUNNY   78  67  68 VRB6      29.93F
FRANKLIN*      CLOUDY    77  64  65 S10       29.97R
NEW CASTLE     NOT AVBL
BEAVER COUNTY  NOT AVBL
BUTLER*        PTSUNNY   79  66  65 SW8G17    29.96F
PITTSBURGH INT PTSUNNY   80  66  62 SW12      29.95S
PITTSBURGH     MOSUNNY   80  64  58 SW12      29.95S
INDIANA*       PTSUNNY   79  66  65 VRB7G14   30.00S
LATROBE        MOSUNNY   81  70  69 SW9       29.96S
WASHINGTON CO* MOSUNNY   81  68  65 S6        29.97S
$$

PAZ004>006-010>012-017>019-024>028-033>037-041-042-045-046-049>053-202100-
CENTRAL PENNSYLVANIA

CITY           SKY/WX    TMP DP  RH WIND       PRES   REMARKS
BRADFORD       CLOUDY    73  64  73 VRB3      29.97F
DUBOIS         PTSUNNY   77  63  61 SW7       29.97S
CLEARFIELD     PTSUNNY   77  67  71 SW6       29.96F
JOHNSTOWN      PTSUNNY   76  63  64 W5        30.00S
ALTOONA        CLOUDY    78  67  68 SW6       29.98S
STATE COLLEGE  PTSUNNY   75  68  78 SW6       29.97S
WILLIAMSPORT   LGT RAIN  76  69  79 S9G18     29.94S
SELINSGROVE    LGT RAIN  74  70  87 S5        29.96S FOG
FT INDIANTOWN  LGT RAIN  77  67  71 E1        29.97S
CAPITAL CITY   LGT RAIN  77  69  76 CALM      29.95S
HARRISBURG     LGT RAIN  77  71  82 CALM      29.94F
YORK           RAIN      76  67  73 S5        29.96S
$$

PAZ038>040-043-044-047-048-054-055-060>062-067>071-202100-
EASTERN PENNSYLVANIA

CITY           SKY/WX    TMP DP  RH WIND       PRES   REMARKS
SCRANTON       MOSUNNY   81  64  56 S10       29.97R
MOUNT POCONO   PTSUNNY   76  62  62 S9        30.03S
ALLENTOWN      PTSUNNY   83  62  49 SW7       29.97R
QUAKERTOWN*    MOCLDY    82  64  54 MISG      29.98S
READING        CLOUDY    82  64  54 S9        29.96R
LANCASTER      PTSUNNY   80  64  58 S8        29.97R
COATESVILLE    MOCLDY    77  66  69 S3        30.00R
POTTSTOWN      PTSUNNY   83  63  50 SW7       29.98S
BLUE BELL      MOSUNNY   84  64  51 SW7       29.96S
DOYLESTOWN     CLOUDY    80  62  54 S7        29.97R
WILLOW GROVE   NOT AVBL
NORTH PHILA    PTSUNNY   84  61  45 SE8       29.97S
PHILADELPHIA   PTSUNNY   83  65  54 SE6       29.96S
$$


USA.gov is the U.S. government's official web portal to all federal, state and local government web resources and services.